Location: City of Moscow
(46.7306°N, 116.9989°W)
Time: 15:22:00
(UTC+00:00)

CUBEBUG 2 - Pass Details

Date: 23 April 2026
Orbit: 546 x 628 km, 97.9° (Epoch: 15 May)

Event Time Altitude Azimuth Distance (km) Brightness Sun altitude
Rises 11:33:53 0° 358° (N) 2,846 ? -11.9°
Reaches altitude 10° 11:36:44 10° 338° (NNW) 1,921 ? -11.5°
Maximum altitude 11:39:19 16° 299° (WNW) 1,529 ? -11.1°
Enters shadow 11:41:20 12° 266° (W) 1,752 ? -10.8°
